Terug naar catalogus

SKIF-D

ActiefCommunicatiePO
NORAD 54153·PAYLOAD·🇷🇺 Russia

Gelanceerd Oct 22, 2022 vanaf Vostochny Cosmodrome

Loading…

Volgende Passages (komende 24 uur)

TLE

VersSource: Space-Track

Epoch: Sep 14, 2026, 04:39 UTC

1 54153U 22139D   26257.19387493  .00000023  00000-0  00000-0 0  9996
2 54153  89.9450  96.6360 0007774 163.9103 196.1856  5.00429695 68564

Volg SKIF-D in realtime met AllMySat

Download on the App Store